Regional Weather Roundup
Issued by NWS Sterling, VA

Home | Current Version | Previous Version | Text Only | Print | Product List | Glossary Off
Versions: 1 2 3 4 5 6 7 8 9 10 11 12 13 14 15 16 17 18 19 20 21 22 23 24 25 26 27 28 29 30 31 32 33 34 35 36 37 38 39 40 41 42 43 44 45 46 47 48 49 50

106
ASUS41 KLWX 281211
RWRLWX

REGIONAL WEATHER ROUNDUP
NATIONAL WEATHER SERVICE BALTIMORE MD/WASHINGTON DC
800 AM EDT FRI JUL 28 2017

Note: "FAIR" indicates few or no clouds below 12,000 feet
with no significant weather and/or obstructions to visibility.
 TC=TEMPERATURE CELSIUS

 * =Non NWS site. Station does not report precipitation (e.g. rain,
    snow, etc.), thunder, or fog.

DCZ001-MDZ009-015-VAZ040>042-051-053>054-281300-
WASHINGTON METRO

CITY           SKY/WX    TMP DP  RH WIND       PRES   REMARKS
WASHINGTON NAT PTSUNNY   78  74  87 NW7       29.83S
DULLES         PTSUNNY   73  68  84 NW6       29.85R
ANDREWS AFB    PTSUNNY   77  73  88 N3        29.82S
FT BELVOIR     PTSUNNY   77  69  77 NW6       29.83S
QUANTICO       CLOUDY    76  73  91 NW3       29.84S
COLLEGE PARK*  CLOUDY    74  71  88 CALM      29.83R
LEESBURG*      CLOUDY    73  72  94 W5        29.86S
MANASSAS*      CLOUDY    74  71  91 CALM      29.85R
GAITHERSBURG*  CLOUDY    73  71  93 CALM      29.86S FOG

$$

MDZ006>007-011-014-281300-
BALTIMORE METRO

CITY           SKY/WX    TMP DP  RH WIND       PRES   REMARKS
BWI AIRPORT    CLOUDY    77  75  93 NE7       29.83R
MD SCIENCE CTR   N/A     77  75  93 MISG      29.83S
MARTIN STATE   CLOUDY    77  75  94 CALM      29.84S
ANNAPOLIS      MOSUNNY   80  79  96 NE6       29.82S
FORT MEADE*    CLOUDY    72  70  94 CALM      29.85S

$$

MDZ012-015-019>023-281300-
MARYLAND EASTERN SHORE

CITY           SKY/WX    TMP DP  RH WIND       PRES   REMARKS
OCEAN CITY     PTSUNNY   76  73  91 S3        29.84S
SALISBURY      SUNNY     76  73  91 CALM      29.83S
BAY BRIDGE AP* CLOUDY    77  75  94 E7        29.82S
CAMBRIDGE*     SUNNY     75  72  88 CALM      29.83R
EASTON*        PTSUNNY   75  73  94 CALM      29.86S

$$

MDZ017>025-281300-
SOUTHERN MARYLAND

CITY           SKY/WX    TMP DP  RH WIND       PRES   REMARKS
PATUXENT RIVER MOSUNNY   77  73  87 W7        29.82S
ST INIGOES     CLOUDY    77  73  87 W5        29.82S
LEONARDTOWN*   SUNNY     75  72  88 W5        29.84S

$$

MDZ003>005-281300-
NORTH CENTRAL MARYLAND

CITY           SKY/WX    TMP DP  RH WIND       PRES   REMARKS
FREDERICK*     CLOUDY    75  75 100 NE3       29.87S FOG
HAGERSTOWN APT FOG       71  70  96 CALM      29.86S VSB 3/4
WESTMINSTER*   CLOUDY    72  72 100 N3        29.86S FOG

$$

MDZ501>502-281300-
WESTERN MARYLAND

CITY           SKY/WX    TMP DP  RH WIND       PRES   REMARKS
OAKLAND*       CLOUDY    63  63 100 SE6       29.92S VSB 1/4
CUMBERLAND*    CLOUDY    70  70 100 CALM      29.91S

$$

VAZ025>031-281300-
SHENANDOAH VALLEY

CITY           SKY/WX    TMP DP  RH WIND       PRES   REMARKS
WINCHESTER*    CLOUDY    70  68  94 CALM      29.86S
FRONT ROYAL*   CLOUDY    70  70 100 CALM      29.86R
LURAY*         CLOUDY    70  70 100 E3        29.87R FOG
NEW MARKET*    CLOUDY    70  69  97 CALM      29.87R
STAUNTON*      CLOUDY    71  69  93 CALM      29.91S
WAYNESBORO*    CLOUDY    71  70  97 CALM      29.90F

$$

WVZ021-048>050-054>055-281300-
EASTERN WEST VIRGINIA PANHANDLE

CITY           SKY/WX    TMP DP  RH WIND       PRES   REMARKS
MARTINSBURG    CLOUDY    69  68  96 CALM      29.86R FOG
PETERSBURG*    CLOUDY    71  70  96 CALM      29.89S

$$

VAZ036>039-050-281300-
CENTRAL FOOTHILLS

CITY           SKY/WX    TMP DP  RH WIND       PRES   REMARKS
CHARLOTTESVILL CLOUDY    77  70  79 CALM      29.86R
CULPEPER*      CLOUDY    72  72  99 CALM      29.85S
ORANGE*        PTSUNNY   72  70  94 SW5       29.85R
GORDONSVILLE*  CLOUDY    73  72  98 CALM      29.85R
WARRENTON*     CLOUDY    73  70  88 CALM      29.84S FOG

$$

VAZ055>057-281300-
NORTH AND CENTRAL PIEDMONT

CITY           SKY/WX    TMP DP  RH WIND       PRES   REMARKS
FREDERICKSBRG* CLOUDY    74  74 100 CALM      29.83S
STAFFORD*      CLOUDY    73  73 100 CALM      29.87F

$$

NCZ024-NYZ072-PAZ021-071-VAZ022-071-281300-
OTHER REGIONAL OBSERVATIONS

CITY           SKY/WX    TMP DP  RH WIND       PRES   REMARKS
NEW YORK CITY  PTSUNNY   75  70  84 NE3       29.89R HAZE
PHILADELPHIA   CLOUDY    74  70  87 NE7       29.85S FOG
PITTSBURGH     CLOUDY    72  69  90 CALM      29.87S FOG
ROANOKE        CLOUDY    73  72  96 N3        29.91S
RICHMOND       MOSUNNY   77  71  82 W6        29.84S
RALEIGH        CLOUDY    78  74  87 SW7       29.88S

$$

ANZ530>537-281300-
MARINE OBSERVATIONS

STATION/POSITION TIME  TEMP    WIND        PRES
                       AIR SEA DIR/SP/G
                 (UTC) (F)     (DEG/KT/KT) (MB)
THOMAS PT LIGHT  1200   78 81   40/  3/  4   N/A
BALT KEY BRIDGE  1148   76     100/  9/  9 1009.8S
COVE POINT       1148   76     280/  4/  7 1010.4S
LEWISETTA        1148   75 82  270/  4/  5 1009.8F
SOLOMONS ISLAND  1142   79 83  260/  5/  7   N/A
PINEY POINT      1148          330/  5/  6   N/A

$$





USA.gov is the U.S. government's official web portal to all federal, state and local government web resources and services.